Santa Cruz, Brazil

6:26 AM -03 on July 21, 2017 (GMT -0300)
Santa Cruz Air Base

Weather History for SBSC - January, 2014

Change the Weather History Date:

Friday, January 3, 2014

  Actual Average Record
Temperature  
Mean Temperature 90 °F -  
Max Temperature 102 °F 90 °F 102 °F (2014)
Min Temperature 78 °F 72 °F 66 °F (1997)
Cooling Degree Days 25    
Growing Degree Days 40 (Base 50)    
Moisture  
Dew Point 74 °F    
Average Humidity 64    
Maximum Humidity 94    
Minimum Humidity 37    
Precipitation  
Precipitation 0.00 in 0.25 in - ()
Sea Level Pressure  
Sea Level Pressure 29.76 in    
Wind  
Wind Speed 6 mph ()    
Max Wind Speed 17 mph    
Max Gust Speed -    
Visibility 6.2 miles    
Events      
Averages and records for this station are not official NWS values.
T = Trace of Precipitation, MM = Missing Value Source: Averaged Metar Reports

Daily Weather History Graph

Daily Weather History Graph

Search for Another Location

Airport or City:

Trip Planner

Search our weather history database for the weather conditions in past years. The results will help you decide how hot, cold, wet, or windy it might be!

Date:

Astronomy

Jan. 03, 2014 Rise Set
Actual Time 6:14 AM -02 7:44 PM -02
Civil Twilight 5:49 AM -02 8:09 PM -02
Nautical Twilight 5:19 AM -02 8:39 PM -02
Astronomical Twilight 4:47 AM -02 9:10 PM -02
Moon 8:30 AM -02 (1/3) 9:38 PM -02 (1/3)
Length of Visible Light 14h 20m
Length of Day
13h 30m
Waxing Crescent, 7% of the Moon is Illuminated
Jan 3
Waxing Crescent
Jan 8
First Quarter
Jan 16
Full
Jan 24
Last Quarter
Jan 30
New

Hourly Weather History & Observations

Time (-02) Temp. Heat Index Dew Point Humidity Pressure Visibility Wind Dir Wind Speed Gust Speed Precip Events Conditions
12:00 AM 80.6 °F 87.1 °F 77.0 °F 89% 29.77 in - WSW 3.5 mph - N/A   Clear
1:00 AM 80.6 °F 87.1 °F 77.0 °F 89% 29.77 in - ENE 2.3 mph - N/A   Clear
2:00 AM 80.6 °F 87.1 °F 77.0 °F 89% 29.74 in - ENE 3.5 mph - N/A   Clear
3:00 AM 78.8 °F - 77.0 °F 94% 29.74 in - ENE 2.3 mph - N/A   Clear
4:00 AM 78.8 °F - 75.2 °F 89% 29.71 in - NE 3.5 mph - N/A   Clear
5:00 AM 78.8 °F - 77.0 °F 94% 29.74 in 6.2 mi NE 3.5 mph - N/A   Partly Cloudy
6:00 AM 80.6 °F 86.2 °F 75.2 °F 84% 29.77 in 6.2 mi NE 3.5 mph - N/A   Partly Cloudy
7:00 AM 84.2 °F 89.6 °F 71.6 °F 66% 29.77 in 6.2 mi North 11.5 mph - N/A   Partly Cloudy
8:00 AM 86.0 °F 91.8 °F 71.6 °F 62% 29.77 in - North 13.8 mph - N/A   Clear
9:00 AM 87.8 °F 93.8 °F 71.6 °F 58% 29.80 in - North 16.1 mph - N/A   Clear
10:00 AM 91.4 °F 98.4 °F 71.6 °F 52% 29.80 in - NNE 13.8 mph - N/A   Clear
11:00 AM 95.0 °F 103.2 °F 71.6 °F 47% 29.80 in - North 17.3 mph - N/A   Clear
12:00 PM 96.8 °F 105.1 °F 71.6 °F 44% 29.80 in - North 10.4 mph - N/A   Clear
1:00 PM 100.4 °F 109.3 °F 71.6 °F 39% 29.77 in 6.2 mi North 13.8 mph - N/A   Partly Cloudy
2:00 PM 100.4 °F 111.9 °F 73.4 °F 42% 29.77 in 6.2 mi NNE 11.5 mph - N/A   Partly Cloudy
3:00 PM 102.2 °F 111.7 °F 71.6 °F 37% 29.74 in 6.2 mi North 11.5 mph - N/A   Partly Cloudy
4:00 PM 102.2 °F 114.4 °F 73.4 °F 40% 29.74 in 6.2 mi South 8.1 mph - N/A   Partly Cloudy
5:00 PM 102.2 °F 114.4 °F 73.4 °F 40% 29.74 in 6.2 mi SSW 10.4 mph - N/A   Partly Cloudy
6:00 PM 98.6 °F 109.2 °F 73.4 °F 44% 29.71 in 6.2 mi South 6.9 mph - N/A   Partly Cloudy
7:00 PM 98.6 °F 109.2 °F 73.4 °F 44% 29.71 in 6.2 mi SSE 8.1 mph - N/A   Partly Cloudy
8:00 PM 93.2 °F 102.4 °F 73.4 °F 52% 29.74 in 6.2 mi SSW 5.8 mph - N/A   Partly Cloudy
9:00 PM 82.4 °F 89.5 °F 75.2 °F 79% 29.77 in 6.2 mi SSW 5.8 mph - N/A   Partly Cloudy
10:00 PM 80.6 °F 84.6 °F 71.6 °F 74% 29.77 in - SW 4.6 mph - N/A   Clear
11:00 PM 78.8 °F - 71.6 °F 78% 29.77 in - SSW 2.3 mph - N/A   Clear